This is the latest recevied weather packets stored in our database for station/object KB1RMA-13. If no packets are shown the sender has not sent any weather packets the latest 10 day(s).
| Time | Temp. | Humidity | Pressure | Rain* | Wind** | Luminosity | Snow |
|---|---|---|---|---|---|---|---|
| 1777733035 | 9.44° C | 88% | 1012.9 hPa | 0 mm | - | 167 W/m² | - |
| 1777732731 | 10° C | 88% | 1012.7 hPa | 0 mm | - | 281 W/m² | - |
| 1777732428 | 9.44° C | 90% | 1012.8 hPa | 0 mm | - | 279 W/m² | - |
| 1777732126 | 8.89° C | 91% | 1012.9 hPa | 0 mm | - | 198 W/m² | - |
| 1777731823 | 8.89° C | 90% | 1013.1 hPa | 0 mm | - | 229 W/m² | - |
| 1777731519 | 8.89° C | 93% | 1013.3 hPa | 0 mm | - | 313 W/m² | - |
| 1777731218 | 8.33° C | 93% | 1013.4 hPa | 0 mm | - | 348 W/m² | - |
| 1777730915 | 7.78° C | 93% | 1013.1 hPa | 0 mm | - | 287 W/m² | - |
| 1777730612 | 7.78° C | 94% | 1013.4 hPa | 0 mm | - | 171 W/m² | - |
| 1777730309 | 7.78° C | 94% | 1013.3 hPa | 0 mm | - | 138 W/m² | - |
| 1777730006 | 7.78° C | 94% | 1013.2 hPa | 0 mm | - | 122 W/m² | - |
| 1777729701 | 7.78° C | 94% | 1013.1 hPa | 0 mm | - | 209 W/m² | - |
| 1777729399 | 7.22° C | 94% | 1013.2 hPa | 0 mm | - | 131 W/m² | - |
| 1777729095 | 7.22° C | 94% | 1013.1 hPa | 0 mm | - | 136 W/m² | - |
| 1777728792 | 7.22° C | 94% | 1013.2 hPa | 0 mm | - | 169 W/m² | - |
| 1777728489 | 7.22° C | 94% | 1012.9 hPa | 0 mm | - | 185 W/m² | - |
| 1777728186 | 7.22° C | 94% | 1013 hPa | 0 mm | - | 187 W/m² | - |
| 1777727883 | 6.67° C | 93% | 1013.1 hPa | 0 mm | - | 63 W/m² | - |
| 1777727580 | 6.67° C | 93% | 1013.1 hPa | 0 mm | - | 55 W/m² | - |
| 1777727277 | 6.67° C | 92% | 1013 hPa | 0 mm | - | 57 W/m² | - |
| 1777726975 | 6.67° C | 92% | 1013 hPa | 0 mm | - | 58 W/m² | - |
| 1777726671 | 7.22° C | 91% | 1013.1 hPa | 0 mm | - | 56 W/m² | - |
| 1777726368 | 7.22° C | 91% | 1013.1 hPa | 0 mm | - | 58 W/m² | - |
| 1777726065 | 6.67° C | 92% | 1013.1 hPa | 0 mm | - | 85 W/m² | - |
| 1777725761 | 7.22° C | 93% | 1013 hPa | 0 mm | - | 101 W/m² | - |
* Rain latest hour (hover to see other rain measurements)
** Current wind speed in m/s (hover to see current wind gust speed)